Date,TemperatureHighF,TemperatureAvgF,TemperatureLowF,DewpointHighF,DewpointAvgF,DewpointLowF,HumidityHigh,HumidityAvg,HumidityLow,PressureMaxIn,PressureMinIn,WindSpeedMaxMPH,WindSpeedAvgMPH,GustSpeedMaxMPH,PrecipitationSumIn
2014-1-1,4.6,-1.9,-14.4,-4.5,-10.7,-22.8,65,65,65,29.41,29.32,8,3,10,0.00
2014-1-2,3.7,-3.0,-15.3,-5.6,-11.8,-23.6,65,65,65,29.38,29.32,8,2,8,0.00
2014-1-3,24.1,5.3,-17.1,14.2,-4.4,-25.4,66,64,54,29.32,28.52,15,3,15,0.00
2014-1-4,32.2,17.6,1.4,29.0,6.9,-12.9,94,63,49,29.14,28.47,17,4,17,0.00
2014-1-5,1.4,-8.4,-16.1,-13.1,-22.0,-29.4,50,50,50,29.29,29.14,14,5,14,0.00
2014-1-6,-13.9,-19.3,-24.7,-27.2,-32.2,-37.2,50,50,50,29.20,29.09,18,7,18,0.00
2014-1-7,-1.1,-10.9,-20.6,-15.3,-24.3,-33.4,50,50,50,29.20,29.09,9,3,9,0.00
2014-1-8,0.0,-9.3,-16.4,-14.2,-22.9,-29.5,50,50,50,29.41,29.20,8,1,8,0.00
2014-1-9,18.5,1.1,-21.1,15.0,-11.0,-33.9,86,56,48,29.41,28.97,10,2,10,0.00
2014-1-10,31.8,26.9,18.7,31.3,25.8,15.0,98,96,87,28.97,28.47,9,2,10,0.00
2014-1-11,32.7,29.7,24.1,32.2,27.3,21.1,98,91,78,28.70,28.47,14,4,14,0.00
2014-1-12,40.6,33.4,24.6,31.0,26.7,22.9,98,78,53,28.67,28.41,10,3,10,0.00
2014-1-13,35.1,29.1,19.4,31.0,21.3,12.6,89,73,53,28.67,28.50,14,4,14,0.00
2014-1-14,28.0,20.0,5.9,27.3,15.6,-2.7,98,83,66,29.03,28.50,17,5,17,0.00
2014-1-15,21.0,5.3,-4.7,14.9,-2.9,-13.0,80,68,67,29.09,28.47,10,3,10,0.00
2014-1-16,34.9,19.5,8.1,34.4,10.4,-4.4,98,68,51,28.76,28.35,20,6,20,0.00
2014-1-17,12.4,7.4,-2.2,-0.3,-5.0,-14.0,56,56,56,28.94,28.76,13,4,13,0.00
2014-1-18,20.5,10.4,0.7,10.8,-0.6,-11.3,78,61,55,28.91,28.67,12,4,13,0.00
2014-1-19,34.5,26.7,16.0,26.1,19.7,9.9,91,75,60,28.70,28.44,12,3,12,0.00
2014-1-20,28.6,13.9,-4.4,20.7,3.8,-16.6,89,64,54,29.32,28.67,15,4,15,0.00
2014-1-21,0.9,-6.5,-17.1,-11.5,-18.4,-28.6,55,55,55,29.38,29.00,9,2,9,0.00
2014-1-22,5.2,0.5,-5.4,-7.6,-11.8,-17.6,55,55,55,29.32,28.88,16,5,18,0.13
2014-1-23,-5.4,-10.3,-15.3,-17.6,-22.0,-26.9,55,55,55,29.59,29.26,15,5,15,0.00
2014-1-24,32.5,18.3,-9.4,31.8,8.4,-21.2,97,65,47,29.26,28.41,23,5,23,0.00
2014-1-25,25.5,5.9,0.7,9.8,-12.1,-17.0,52,42,41,28.79,28.47,19,7,22,0.08
2014-1-26,16.0,5.5,-3.8,4.8,-10.3,-16.6,62,47,42,28.91,28.35,26,7,26,0.04
2014-1-27,-3.8,-12.5,-17.1,-16.6,-24.8,-29.1,53,53,53,29.32,28.91,20,7,20,0.18
2014-1-28,-2.6,-10.7,-19.1,-15.5,-23.1,-31.0,53,53,53,29.32,29.06,12,4,12,0.00
2014-1-29,29.7,9.0,-12.8,12.8,-6.1,-25.1,53,50,43,29.06,28.61,12,3,12,0.00
2014-1-30,32.0,20.7,-0.6,30.7,10.2,-14.4,95,65,48,28.97,28.50,14,3,14,0.00
2014-1-31,4.1,-5.1,-15.3,-10.0,-18.5,-28.1,51,51,51,29.14,28.97,8,2,8,0.00
2014-2-1,14.9,4.0,-8.5,1.3,-9.4,-21.8,55,53,51,29.12,28.94,8,2,8,0.00
2014-2-2,7.7,-2.0,-11.0,-5.1,-14.2,-22.7,55,55,55,29.26,29.12,7,2,7,0.00
2014-2-3,16.2,0.8,-14.8,2.5,-11.4,-26.2,57,56,54,29.29,29.14,8,1,8,0.00
2014-2-4,16.5,4.0,-8.9,1.1,-9.3,-20.0,57,53,47,29.38,29.29,10,1,10,0.04
2014-2-5,7.0,2.5,-3.8,-8.3,-12.3,-18.3,49,49,49,29.44,29.32,10,4,10,0.04
2014-2-6,0.9,-4.9,-13.4,-14.0,-19.2,-27.2,49,49,49,29.38,29.17,12,4,13,0.00
2014-2-7,9.7,-0.2,-7.2,-5.6,-14.8,-21.3,49,49,49,29.17,29.12,10,4,11,0.00
2014-2-8,14.7,2.3,-15.3,2.9,-10.7,-29.0,60,54,49,29.14,29.06,6,1,6,0.00
2014-2-9,10.9,2.6,-11.0,-0.2,-8.1,-21.0,60,60,60,29.32,29.09,11,4,12,0.00
2014-2-10,2.1,-7.1,-14.8,-8.7,-17.3,-24.8,60,60,60,29.41,29.32,10,3,10,0.00
2014-2-11,11.8,-0.8,-18.8,0.6,-11.3,-28.6,60,60,60,29.41,29.09,8,2,8,0.00
2014-2-12,22.6,14.5,9.3,11.9,4.9,-1.7,87,65,58,29.12,28.85,6,1,6,0.83
2014-2-13,30.9,19.3,10.8,23.5,13.5,4.4,87,78,69,28.85,28.41,15,5,15,0.00
2014-2-14,14.5,7.8,-2.0,6.0,-3.0,-16.9,71,61,48,29.00,28.64,10,4,10,0.00
2014-2-15,20.1,8.1,-8.0,16.0,-4.0,-22.4,86,58,45,29.00,28.82,13,2,13,0.00
2014-2-16,20.8,14.8,5.4,14.9,4.9,0.5,83,66,47,29.20,28.97,10,3,11,0.00
2014-2-17,29.5,23.6,16.9,28.0,18.9,4.5,94,82,54,29.09,28.67,18,3,18,0.00
2014-2-18,43.5,30.1,16.7,40.8,22.5,14.5,94,75,49,28.79,28.55,6,1,6,0.00
2014-2-19,40.8,32.5,21.9,31.6,25.0,18.6,93,74,55,28.85,28.70,7,2,7,0.00
2014-2-20,53.8,40.7,32.9,53.2,34.3,20.2,98,79,59,28.76,28.08,17,3,17,0.00
2014-2-21,48.7,17.9,12.2,47.1,11.2,4.0,98,75,66,28.70,28.11,18,8,21,0.00
2014-2-22,16.2,10.7,7.0,4.9,0.6,-4.0,67,63,56,29.06,28.70,13,6,13,0.00
2014-2-23,16.0,9.1,2.5,2.5,-3.1,-8.2,60,57,51,29.17,29.06,15,6,15,0.00
2014-2-24,11.7,6.6,0.5,-1.8,-6.5,-12.4,54,54,54,29.26,29.17,12,5,12,0.00
2014-2-25,10.8,0.5,-5.8,-2.6,-12.3,-18.1,54,54,54,29.23,29.14,12,6,13,0.00
2014-2-26,17.6,1.0,-13.7,11.0,-10.0,-25.6,78,60,53,29.23,28.55,22,7,22,0.00
2014-2-27,0.1,-9.8,-19.1,-5.3,-14.8,-23.9,78,78,78,29.14,28.79,17,4,17,0.00
2014-2-28,13.5,0.8,-19.3,7.5,-4.5,-24.0,78,78,78,29.09,28.88,9,2,9,0.00
2014-3-1,9.5,1.6,-4.7,4.0,-3.6,-9.8,78,78,78,29.41,29.06,12,4,12,0.00
2014-3-2,0.1,-8.1,-17.7,-5.1,-13.1,-22.6,78,78,78,29.47,29.38,10,3,10,0.00
2014-3-3,11.8,-0.7,-18.4,6.1,-5.9,-23.3,78,78,78,29.47,29.23,6,1,6,0.00
2014-3-4,21.0,13.6,9.0,7.9,2.5,-0.9,78,62,46,29.26,29.14,9,1,9,0.00
2014-3-5,22.1,15.3,9.3,3.8,-0.4,-7.1,60,49,42,29.44,29.26,13,4,14,0.00
2014-3-6,28.2,18.4,5.5,16.4,4.5,-10.8,73,54,46,29.35,28.85,9,3,11,0.00
2014-3-7,37.4,32.2,24.1,33.8,25.0,16.0,89,75,59,29.09,28.79,12,2,12,0.00
2014-3-8,28.9,23.6,15.4,19.5,11.2,4.9,73,59,49,29.26,29.09,11,3,11,0.00
2014-3-9,42.4,31.6,15.3,34.8,21.2,8.6,81,66,49,29.17,28.64,11,3,11,0.00
2014-3-10,52.7,44.5,38.3,51.6,34.4,28.5,97,70,47,28.67,28.58,10,2,10,0.00
2014-3-11,44.8,39.9,32.7,32.5,24.1,15.4,75,54,38,28.91,28.67,13,3,13,0.00
2014-3-12,32.5,22.3,10.6,22.4,6.3,-4.4,79,50,42,29.09,28.91,12,4,14,0.00
2014-3-13,44.1,30.9,11.7,38.4,19.5,-2.4,87,63,50,29.06,28.55,10,2,10,0.00
2014-3-14,52.2,38.6,27.0,50.9,29.0,14.2,97,69,50,28.91,28.47,22,6,22,0.00
2014-3-15,32.9,25.4,15.6,14.2,8.9,-2.6,63,49,41,29.38,28.88,16,3,17,0.00
2014-3-16,24.6,15.2,5.5,4.3,-3.0,-11.6,54,44,37,29.44,29.06,15,3,15,0.00
2014-3-17,31.6,24.6,19.4,22.6,11.3,1.8,82,57,46,29.06,28.67,10,4,12,0.00
2014-3-18,39.6,33.6,27.0,34.7,22.2,13.4,85,63,49,28.76,28.70,13,5,14,0.00
2014-3-19,47.3,36.7,32.9,45.9,29.1,18.2,96,75,53,28.94,28.70,17,5,17,0.00
2014-3-20,41.7,33.8,25.3,29.0,24.0,20.3,89,68,45,29.03,28.91,7,2,8,0.00
2014-3-21,43.0,36.1,27.5,36.4,26.4,21.3,91,69,45,29.00,28.70,19,4,21,0.00
2014-3-22,35.6,18.7,10.9,28.6,5.2,-4.0,77,55,45,29.41,29.00,18,7,18,0.00
2014-3-23,22.1,12.2,4.5,4.8,-2.6,-10.1,58,51,46,29.44,29.29,15,3,15,0.00
2014-3-24,31.5,19.9,8.8,24.5,9.3,-0.8,84,64,46,29.32,29.03,15,3,15,0.00
2014-3-25,20.7,13.7,7.2,10.9,-2.5,-9.3,68,48,44,29.20,29.03,17,6,17,0.00
2014-3-26,37.4,23.3,6.1,19.3,6.6,-9.1,81,49,41,29.14,28.70,14,3,14,0.00
2014-3-27,62.1,51.5,34.7,61.5,47.5,19.3,98,87,52,28.70,28.50,14,3,14,0.00
2014-3-28,40.6,34.1,30.4,36.9,21.1,15.5,94,60,43,29.17,28.64,13,3,13,0.00
2014-3-29,46.2,34.1,23.0,26.4,19.3,13.2,73,55,40,29.23,29.12,8,2,8,0.00
2014-3-30,57.9,46.2,33.6,35.9,30.8,25.4,75,57,40,29.12,28.85,14,3,14,0.00
2014-3-31,59.2,49.6,42.6,42.1,35.7,30.2,74,59,47,28.88,28.41,14,5,14,0.00
2014-4-1,52.5,32.8,22.8,51.1,23.8,10.8,96,70,51,29.06,28.47,22,8,22,0.00
2014-4-2,42.3,33.4,22.5,29.2,18.2,13.0,89,56,39,29.17,29.06,12,3,12,0.00
2014-4-3,51.4,39.4,33.3,50.3,30.5,14.7,96,72,45,29.09,28.73,19,5,19,0.00
2014-4-4,56.8,44.4,32.9,56.0,41.6,28.6,98,90,72,29.00,28.61,4,0,4,0.00
2014-4-5,47.1,38.5,31.8,42.3,30.2,24.9,96,74,46,29.12,29.00,8,1,8,0.00
2014-4-6,61.0,49.0,35.4,46.0,35.4,27.9,86,61,45,29.00,28.82,12,2,12,0.00
2014-4-7,71.1,55.2,39.2,70.2,50.2,33.1,98,84,52,28.85,28.73,9,1,9,0.00
2014-4-8,51.6,42.9,33.4,48.4,29.5,22.7,96,61,39,28.97,28.76,14,3,14,0.00
2014-4-9,66.4,49.5,30.7,37.0,31.0,24.8,88,53,33,28.97,28.50,16,3,16,0.00
2014-4-10,60.3,52.4,37.6,42.6,28.1,19.4,67,41,25,28.91,28.50,23,6,23,0.00
2014-4-11,62.2,46.5,33.3,40.5,29.4,20.8,76,53,31,28.97,28.91,10,1,10,0.00
2014-4-12,53.1,48.3,45.0,51.4,40.2,28.6,94,75,48,28.94,28.70,17,5,17,0.00
2014-4-13,52.5,47.2,41.5,51.4,43.1,35.5,96,86,67,28.85,28.70,16,4,16,0.00
2014-4-14,44.4,31.9,23.5,43.6,16.4,6.0,97,54,38,29.06,28.79,17,3,17,0.00
2014-4-15,38.8,28.0,21.2,13.5,9.8,6.4,68,47,33,29.12,29.03,14,3,14,0.00
2014-4-16,48.6,37.8,28.9,39.6,24.9,9.6,86,61,42,29.12,28.88,20,6,20,0.00
2014-4-17,53.1,42.3,30.4,52.2,36.9,24.0,97,82,57,29.29,28.91,12,4,13,0.00
2014-4-18,53.6,42.5,32.7,42.5,28.5,20.9,97,63,34,29.35,29.23,11,2,11,0.00
2014-4-19,66.6,51.6,35.4,43.2,30.4,20.8,60,45,33,29.26,29.00,15,4,15,0.00
2014-4-20,71.2,61.7,53.8,58.7,50.0,39.4,91,67,46,29.06,28.94,8,1,8,0.00
2014-4-21,77.5,64.4,43.2,76.4,47.4,25.8,97,60,24,29.03,28.85,19,5,19,0.00
2014-4-22,57.2,44.4,33.4,27.5,24.5,15.4,74,47,29,29.09,29.00,18,4,18,0.00
2014-4-23,53.6,44.7,33.3,51.9,30.7,21.0,94,61,36,29.12,28.97,13,3,13,0.00
2014-4-24,68.4,56.2,45.0,67.8,55.0,41.9,98,95,89,29.00,28.67,18,5,18,0.00
2014-4-25,65.1,52.4,40.3,63.7,41.9,28.8,98,70,42,28.91,28.70,17,4,17,0.00
2014-4-26,55.8,45.6,36.3,33.1,29.2,25.8,84,55,37,29.03,28.91,17,6,17,0.25
2014-4-27,47.1,42.9,39.4,44.9,36.1,29.5,92,77,59,29.00,28.76,26,9,26,0.38
2014-4-28,49.5,45.6,43.7,47.2,37.5,29.5,92,74,55,28.82,28.67,27,9,27,0.08
2014-4-29,52.2,47.8,43.7,51.3,45.9,33.8,97,93,68,28.70,28.58,20,7,20,0.37
2014-4-30,57.9,51.5,47.3,57.2,50.1,43.3,98,95,86,28.70,28.67,9,2,9,0.12
2014-5-1,60.8,54.0,47.5,60.2,51.3,41.2,98,91,74,28.82,28.61,11,3,11,0.00
2014-5-2,53.8,49.2,45.9,45.2,40.4,36.1,85,72,52,28.79,28.61,11,3,11,0.00
2014-5-3,59.5,51.2,43.3,52.4,35.0,26.0,97,58,35,28.91,28.67,18,6,18,0.00
2014-5-4,63.0,48.8,35.1,29.2,25.4,22.6,66,42,26,29.09,28.91,11,2,11,0.00
2014-5-5,65.5,53.8,46.0,35.5,30.9,24.8,53,42,31,29.03,28.94,14,4,14,0.00
2014-5-6,64.8,54.6,43.0,37.3,33.5,29.0,77,47,34,29.03,28.85,20,6,20,0.00
2014-5-7,64.9,54.9,49.3,50.5,42.1,30.0,88,63,43,28.88,28.73,31,7,31,0.00
2014-5-8,79.9,65.9,55.4,78.6,59.2,50.3,96,80,51,28.79,28.58,15,3,15,0.00
2014-5-9,79.0,55.0,46.0,76.1,47.7,41.2,96,77,62,28.82,28.52,15,5,16,0.00
2014-5-10,72.3,58.0,45.0,56.9,42.5,30.0,95,62,25,28.91,28.79,10,2,10,0.00
2014-5-11,72.7,63.3,55.0,65.9,52.8,46.5,92,71,42,28.91,28.79,8,2,9,0.00
2014-5-12,88.2,76.2,62.1,86.6,70.9,59.2,96,84,58,28.85,28.67,17,3,17,0.75
2014-5-13,63.5,53.0,46.2,62.2,43.5,33.2,96,71,49,29.14,28.76,19,6,19,0.00
2014-5-14,60.6,51.1,40.8,40.1,31.7,25.1,87,51,31,29.20,29.09,13,3,13,0.00
2014-5-15,52.3,46.1,41.0,29.6,25.8,22.7,60,45,37,29.12,29.03,17,4,17,0.00
2014-5-16,53.2,44.6,34.0,39.1,27.5,22.8,91,53,36,29.09,29.00,11,2,12,0.00
2014-5-17,65.3,51.2,35.2,34.7,29.9,25.1,83,48,26,29.03,28.97,15,3,15,0.00
2014-5-18,73.9,59.5,42.8,40.2,34.6,27.3,67,41,26,29.09,29.00,13,3,15,0.00
2014-5-19,71.8,60.0,53.1,70.6,49.9,33.8,97,72,46,29.09,28.82,15,4,15,0.95
2014-5-20,76.8,66.9,57.6,64.1,58.0,52.8,94,75,47,28.88,28.79,8,2,8,0.00
2014-5-21,81.0,64.9,54.1,79.5,51.9,42.0,97,65,45,29.09,28.82,15,4,15,0.00
2014-5-22,71.4,59.7,48.7,47.0,42.4,39.1,86,55,34,29.17,29.09,13,3,13,0.00
2014-5-23,79.2,64.5,51.3,61.1,45.5,38.9,97,56,28,29.23,29.12,10,1,10,0.00
2014-5-24,81.0,67.0,52.9,56.0,45.8,38.1,92,51,30,29.20,29.09,11,2,11,0.09
2014-5-25,84.2,70.1,51.6,59.8,49.7,42.5,94,52,30,29.09,28.94,12,2,12,0.00
2014-5-26,87.4,76.6,67.6,69.2,62.9,57.6,92,65,39,28.97,28.88,9,2,10,0.00
2014-5-27,92.1,78.7,69.1,90.2,75.0,63.9,96,89,66,29.00,28.88,15,3,15,1.25
2014-5-28,83.3,70.7,59.2,68.4,50.0,38.8,94,54,24,29.09,28.97,13,3,13,0.00
2014-5-29,87.8,70.5,56.8,61.4,50.3,44.2,95,54,24,29.17,29.06,11,2,11,0.00
2014-5-30,89.6,73.5,58.1,57.4,50.3,44.5,89,48,23,29.17,29.09,11,2,13,0.00
2014-5-31,88.7,75.5,63.9,71.7,55.1,46.5,90,52,29,29.14,28.97,11,1,11,0.00
2014-6-1,87.6,77.5,73.2,85.8,74.3,65.4,96,90,73,28.97,28.76,9,2,9,0.49
2014-6-2,89.8,79.9,63.1,88.1,70.6,49.4,97,76,42,28.82,28.67,19,4,21,0.17
2014-6-3,76.6,66.5,57.6,56.3,49.5,45.9,82,56,35,28.97,28.79,14,5,16,0.00
2014-6-4,82.2,71.6,61.7,66.3,54.8,47.9,95,60,32,28.94,28.85,10,2,10,0.04
2014-6-5,79.7,71.2,64.2,73.7,57.5,45.7,97,66,33,28.97,28.88,12,2,12,0.04
2014-6-6,86.5,76.0,67.8,78.3,62.1,48.5,97,67,29,28.97,28.91,11,2,11,0.17
2014-6-7,71.8,65.9,61.3,70.0,62.3,57.6,96,88,71,29.06,28.91,14,2,17,0.16
2014-6-8,75.2,66.3,57.4,71.4,49.9,37.8,98,61,31,29.12,29.03,10,2,10,0.00
2014-6-9,75.2,65.2,57.6,56.3,50.7,46.3,84,61,37,29.06,28.97,11,2,11,0.00
2014-6-10,77.4,67.6,59.9,65.6,50.9,41.6,95,60,32,29.00,28.88,13,3,13,0.00
2014-6-11,84.0,70.9,58.3,63.3,52.0,47.3,95,55,31,28.91,28.73,8,2,8,0.00
2014-6-12,68.9,62.9,53.6,62.5,48.1,42.2,80,59,46,28.94,28.67,19,6,19,0.04
2014-6-13,74.8,61.6,48.2,47.5,41.6,36.2,85,51,31,29.03,28.91,10,2,12,0.00
2014-6-14,72.5,63.2,57.0,66.9,51.0,43.3,94,66,39,29.00,28.79,14,3,14,0.59
2014-6-15,78.6,70.1,62.2,70.3,59.9,51.0,96,73,42,28.91,28.55,17,5,17,1.99
2014-6-16,85.8,74.0,61.9,75.3,59.9,51.4,95,65,35,28.97,28.64,20,3,20,0.45
2014-6-17,86.2,75.3,66.7,72.2,63.0,54.7,95,67,41,28.91,28.64,10,1,12,0.00
2014-6-18,88.5,79.6,70.9,86.9,73.0,62.0,96,81,53,29.03,28.82,15,4,15,0.63
2014-6-19,75.9,72.7,68.9,73.4,66.8,63.9,93,82,70,29.12,28.97,18,4,18,0.00
2014-6-20,88.2,78.8,71.8,84.8,67.6,56.9,97,72,37,29.03,28.88,0,0,0,0.00
2014-6-21,85.6,76.3,66.0,70.8,59.4,47.9,92,61,29,28.94,28.88,0,0,0,0.00
2014-6-22,83.3,74.6,66.2,81.7,68.2,59.1,96,82,50,28.94,28.85,0,0,0,0.08
2014-6-23,85.8,81.9,72.3,84.6,78.6,62.1,96,90,62,28.88,28.82,0,0,0,0.00
2014-6-24,83.3,75.7,68.7,76.0,63.0,54.1,96,68,39,28.97,28.88,14,2,14,0.00
2014-6-25,80.1,70.2,63.7,79.1,65.0,59.3,97,84,57,29.06,28.97,10,2,10,0.33
2014-6-26,82.6,76.1,70.5,81.2,69.3,60.6,97,81,54,29.06,28.97,12,3,12,0.00
2014-6-27,82.8,76.7,70.3,81.3,71.8,64.4,97,85,70,28.97,28.85,10,3,11,0.13
2014-6-28,85.8,79.2,73.6,79.0,71.5,64.4,97,78,60,28.91,28.73,13,3,13,2.16
2014-6-29,84.4,78.4,71.8,80.2,68.5,56.9,97,74,45,28.82,28.73,13,3,13,0.04
2014-6-30,83.7,74.5,66.9,82.4,67.7,57.0,96,80,52,28.76,28.55,13,2,13,0.05
2014-7-1,77.5,68.0,61.5,68.9,59.1,54.2,90,74,49,28.79,28.55,14,5,16,0.00
2014-7-2,75.4,64.1,56.8,56.6,49.8,41.9,89,64,32,29.06,28.79,15,3,15,0.00
2014-7-3,77.4,66.7,56.1,64.1,51.3,42.5,98,63,33,29.20,29.06,10,2,10,0.00
2014-7-4,81.7,71.3,62.1,70.6,54.0,46.2,98,59,32,29.29,29.14,10,2,10,0.00
2014-7-5,82.4,72.4,63.3,64.6,58.1,51.7,77,61,47,29.17,28.94,11,2,11,0.00
2014-7-6,87.1,77.0,69.8,83.0,70.4,62.6,95,81,46,28.97,28.67,11,3,11,0.16
2014-7-7,83.7,74.1,65.7,79.1,65.7,57.0,97,77,43,28.79,28.67,11,3,11,0.71
2014-7-8,80.4,72.0,64.4,79.5,62.4,49.4,97,74,43,28.88,28.64,15,4,15,0.04
2014-7-9,78.3,68.2,61.7,63.3,53.2,43.5,96,62,37,29.03,28.85,10,2,10,0.00
2014-7-10,85.5,72.7,61.2,66.7,59.6,53.4,95,66,41,29.09,29.03,10,2,10,0.00
2014-7-11,80.1,72.1,67.6,68.8,63.8,59.1,85,75,58,29.09,29.00,10,2,10,0.00
2014-7-12,82.2,75.3,71.1,80.7,72.5,65.1,97,91,78,29.03,28.91,15,1,18,0.00
2014-7-13,79.0,71.3,60.8,77.8,57.5,43.6,98,66,34,28.97,28.88,12,3,12,0.00
2014-7-14,66.2,61.2,57.4,60.4,53.6,41.8,92,77,44,28.97,28.85,19,4,19,0.08
2014-7-15,72.5,63.0,57.6,59.6,52.6,44.0,95,72,39,29.03,28.97,10,3,13,0.00
2014-7-16,77.4,65.9,58.5,65.5,50.9,40.2,98,64,31,29.06,29.00,11,2,11,0.00
2014-7-17,79.7,68.7,59.0,63.1,54.8,48.9,97,65,37,29.09,29.03,10,1,10,0.04
2014-7-18,81.1,71.5,62.6,68.8,57.7,51.1,97,65,38,29.09,29.00,13,2,13,0.00
2014-7-19,81.7,72.8,66.2,62.1,59.6,56.7,79,64,46,29.03,28.94,10,2,10,0.00
2014-7-20,85.6,76.4,68.7,65.6,62.7,59.8,78,63,47,28.97,28.88,11,2,11,0.00
2014-7-21,90.3,80.8,73.4,73.5,68.4,63.5,79,67,53,28.97,28.88,10,2,10,0.00
2014-7-22,84.4,79.0,68.4,76.8,66.3,57.8,86,66,44,29.14,28.82,14,3,14,0.00
2014-7-23,82.8,72.6,65.1,72.4,57.4,47.8,97,64,30,29.23,29.14,10,2,10,0.00
2014-7-24,82.9,71.6,61.7,66.6,56.2,46.5,96,63,33,29.17,28.97,9,2,9,0.00
2014-7-25,76.5,71.6,67.1,72.8,65.2,59.3,96,80,71,29.00,28.82,9,2,9,0.08
2014-7-26,87.1,78.4,71.1,76.1,68.6,61.1,95,74,45,28.88,28.79,11,2,11,0.13
2014-7-27,79.9,69.9,59.2,78.6,60.6,51.2,97,74,46,29.09,28.76,17,3,17,0.04
2014-7-28,75.7,67.2,59.2,63.7,53.0,42.7,96,64,35,29.17,29.09,10,2,12,0.00
2014-7-29,77.9,67.0,61.2,65.9,58.5,51.2,96,76,44,29.09,29.03,17,2,20,0.12
2014-7-30,78.3,71.1,65.3,74.1,63.7,51.8,98,81,44,29.09,29.00,11,2,11,0.34
2014-7-31,81.1,73.1,66.4,74.3,61.4,52.7,97,70,40,29.03,29.00,14,2,14,0.00
2014-8-1,84.4,74.2,66.6,72.4,63.1,54.2,97,71,37,29.12,29.00,8,1,8,0.00
2014-8-2,86.4,75.5,67.5,74.7,63.7,55.3,98,70,36,29.14,29.09,9,1,9,0.00
2014-8-3,86.7,75.6,68.9,68.8,63.4,53.0,93,69,34,29.14,29.06,12,2,12,0.00
2014-8-4,82.4,76.0,70.3,78.3,69.8,58.6,97,83,46,29.09,29.03,13,2,15,1.41
2014-8-5,85.6,76.1,68.4,83.7,69.0,55.8,98,81,44,29.14,29.06,9,2,9,0.00
2014-8-6,83.8,74.4,66.0,78.3,62.2,51.7,98,70,35,29.12,29.06,9,1,9,0.00
2014-8-7,85.8,73.8,66.4,72.5,61.3,51.6,98,69,34,29.14,29.03,9,2,9,0.00
2014-8-8,80.6,71.5,64.4,65.2,58.7,52.6,94,67,40,29.14,29.09,9,2,9,0.00
2014-8-9,83.5,73.3,65.5,71.0,59.5,53.0,98,66,39,29.14,29.09,10,2,10,0.00
2014-8-10,83.7,72.2,64.4,65.0,57.0,46.3,95,63,30,29.12,29.00,8,1,10,0.00
2014-8-11,76.1,69.4,64.2,75.2,62.7,50.7,97,81,44,29.00,28.91,18,3,18,0.66
2014-8-12,77.2,68.1,61.9,68.0,55.8,44.8,98,69,35,29.03,28.97,15,3,15,0.00
2014-8-13,79.3,70.0,60.6,61.8,55.1,45.4,88,62,32,29.12,28.97,14,2,14,0.00
2014-8-14,76.5,64.0,52.5,58.2,49.2,42.3,94,62,33,29.17,29.03,9,2,9,0.00
2014-8-15,83.7,71.2,58.1,65.5,60.1,50.7,96,70,47,29.06,28.88,12,1,12,0.00
2014-8-16,85.6,76.1,68.9,79.2,70.2,63.7,97,84,51,28.94,28.85,11,2,11,0.00
2014-8-17,76.1,71.7,67.8,72.9,65.4,59.6,96,81,64,29.03,28.88,11,4,11,0.00
2014-8-18,83.3,75.7,69.6,80.3,72.1,64.6,97,89,67,28.91,28.67,11,2,11,0.50
2014-8-19,79.5,73.5,69.6,78.3,68.8,59.3,98,86,57,28.82,28.67,10,2,10,0.00
2014-8-20,78.8,73.4,67.6,77.2,67.0,58.8,98,82,53,28.94,28.82,8,2,9,0.00
2014-8-21,80.2,75.3,69.1,79.0,71.2,64.1,97,88,73,28.94,28.82,13,3,13,0.00
2014-8-22,86.5,80.3,73.9,84.9,74.6,68.5,97,84,57,29.03,28.85,8,2,8,0.00
2014-8-23,80.4,77.5,73.9,78.9,74.8,71.9,96,92,80,29.03,28.97,10,3,10,0.00
2014-8-24,88.2,78.9,73.8,76.7,72.2,68.4,92,81,58,28.97,28.85,12,4,12,0.00
2014-8-25,85.3,77.6,64.9,81.1,67.9,54.3,94,74,42,29.03,28.88,15,2,15,0.17
2014-8-26,73.9,64.1,57.7,60.2,52.9,45.1,94,69,42,29.20,29.03,10,2,10,0.00
2014-8-27,77.9,66.7,61.5,65.5,56.2,49.3,95,72,42,29.23,29.12,11,1,11,0.00
2014-8-28,72.5,65.9,56.3,68.1,59.7,47.9,95,81,62,29.14,28.97,8,3,8,0.00
2014-8-29,81.3,71.3,63.1,73.7,67.4,60.0,94,88,68,28.97,28.76,11,2,11,0.91
2014-8-30,77.4,70.7,64.2,72.0,65.9,60.7,92,85,75,28.91,28.73,10,1,10,0.08
2014-8-31,82.8,72.8,64.4,69.7,65.3,60.5,90,78,62,28.94,28.67,12,2,12,0.34
2014-9-1,75.2,70.7,62.6,67.9,61.2,49.6,87,73,43,28.82,28.67,14,3,14,1.03
2014-9-2,76.5,68.4,60.4,61.9,55.6,47.2,87,66,37,28.91,28.82,9,2,11,0.00
2014-9-3,76.8,67.9,60.3,65.2,60.6,55.1,85,78,63,28.94,28.76,10,2,17,0.88
2014-9-4,78.6,74.6,69.1,71.4,68.1,63.4,83,80,78,28.85,28.70,10,2,11,0.45
2014-9-5,75.2,61.4,55.6,69.5,53.1,48.1,85,75,59,29.14,28.82,13,4,13,0.00
2014-9-6,73.6,61.5,52.3,54.9,50.3,44.5,90,70,38,29.17,29.12,10,2,12,0.00
2014-9-7,76.1,64.6,56.3,56.5,51.4,46.4,89,66,36,29.17,29.06,10,2,10,0.00
2014-9-8,71.6,63.0,56.7,57.0,54.2,52.2,87,74,52,29.06,28.88,12,1,12,0.00
2014-9-9,79.2,69.1,61.0,64.9,60.6,56.1,85,75,56,28.91,28.76,11,1,15,0.12
2014-9-10,69.4,57.0,45.5,63.7,50.3,37.4,86,78,67,29.06,28.64,18,4,20,1.25
2014-9-11,56.7,48.3,41.9,41.8,35.7,32.1,87,64,41,29.32,29.06,12,2,16,0.00
2014-9-12,47.3,42.9,40.5,42.8,39.2,36.9,87,87,81,29.38,29.29,4,0,4,0.08
2014-9-13,58.8,49.3,40.5,42.4,37.6,31.2,91,67,38,29.32,29.17,9,1,9,0.00
2014-9-14,65.7,55.2,47.8,46.4,41.2,35.4,83,61,37,29.17,29.06,11,3,11,0.00
2014-9-15,61.3,52.8,42.1,47.6,41.5,33.6,87,68,38,29.20,29.12,13,2,13,0.00
2014-9-16,66.7,53.0,42.1,46.0,41.2,37.3,90,68,37,29.20,29.00,9,1,10,0.00
2014-9-17,71.4,58.1,45.0,54.3,48.2,41.0,87,72,44,29.06,28.94,8,1,8,0.00
2014-9-18,63.9,55.7,50.2,52.9,49.8,46.2,87,81,67,29.14,29.03,13,5,13,0.00
2014-9-19,75.2,64.8,55.9,62.1,54.8,51.1,86,71,50,29.06,28.70,12,3,13,0.00
2014-9-20,75.0,67.6,56.5,63.2,57.4,49.5,86,72,43,28.82,28.70,25,4,25,0.17
2014-9-21,64.0,56.6,48.0,51.9,45.5,39.8,86,69,43,29.17,28.76,16,4,20,0.00
2014-9-22,68.7,56.4,46.6,51.6,47.1,42.0,88,73,46,29.23,29.14,11,2,11,0.00
2014-9-23,72.5,60.1,48.2,54.2,49.0,43.6,87,69,42,29.26,29.17,11,1,11,0.00
2014-9-24,64.8,59.0,54.9,54.8,51.4,48.5,84,76,62,29.23,29.17,8,1,8,0.08
2014-9-25,75.2,63.7,57.2,55.7,53.5,49.9,84,72,43,29.26,29.17,8,1,9,0.00
2014-9-26,77.0,65.3,56.1,55.5,52.3,49.7,86,66,40,29.20,29.14,8,1,10,0.00
2014-9-27,80.6,67.1,56.8,60.3,56.4,51.7,84,70,44,29.20,29.12,8,1,8,0.00
2014-9-28,79.5,66.9,57.6,61.1,56.2,52.4,85,71,41,29.14,29.03,7,0,8,0.00
2014-9-29,61.3,54.5,43.7,55.8,45.9,37.5,86,73,53,29.12,29.03,15,4,15,0.00
2014-9-30,56.3,47.1,40.8,42.8,39.2,36.2,85,75,54,29.12,28.94,10,5,12,0.00
2014-10-1,59.7,53.4,46.9,54.2,48.4,41.7,85,83,82,28.97,28.82,13,2,13,0.33
2014-10-2,68.7,61.1,56.3,58.3,54.7,50.9,83,80,67,28.85,28.70,12,1,12,0.17
2014-10-3,56.3,46.9,38.1,50.9,39.4,27.7,86,76,52,28.76,28.64,23,7,23,0.00
2014-10-4,50.5,43.2,36.7,38.3,32.1,24.6,87,67,45,28.70,28.61,15,6,17,0.16
2014-10-5,49.3,40.3,32.5,34.2,29.9,27.1,86,68,43,28.67,28.52,13,3,13,0.00
2014-10-6,55.9,46.4,35.8,38.9,33.8,26.0,86,65,37,28.55,28.44,15,3,15,0.00
2014-10-7,59.9,49.3,35.8,40.2,34.7,29.5,85,60,37,28.82,28.44,20,4,20,0.00
2014-10-8,55.8,43.4,33.6,36.0,29.8,24.4,87,62,36,29.03,28.82,22,4,22,0.00
2014-10-9,54.0,40.8,31.3,33.1,30.0,24.5,87,67,41,29.17,29.03,13,2,13,0.00
2014-10-10,54.7,41.9,32.2,37.0,30.9,28.2,87,68,40,29.20,29.14,10,2,10,0.00
2014-10-11,55.4,41.2,29.8,40.1,30.1,26.5,87,68,37,29.23,29.03,8,0,8,0.00
2014-10-12,60.4,48.5,37.9,43.1,35.0,30.6,83,62,36,29.03,28.82,10,2,12,0.00
2014-10-13,57.2,54.5,51.1,51.6,49.0,42.7,84,82,70,28.82,28.70,12,2,12,0.38
2014-10-14,59.5,53.3,48.2,49.5,41.7,33.1,84,67,42,28.91,28.70,22,6,22,0.54
2014-10-15,64.4,51.4,41.4,38.6,35.4,32.3,83,57,33,28.94,28.85,13,3,15,0.00
2014-10-16,67.1,51.5,36.9,45.0,38.8,32.8,86,65,35,28.88,28.55,9,2,9,0.00
2014-10-17,56.1,52.3,47.7,48.6,43.9,38.6,83,73,63,28.97,28.55,18,5,18,0.00
2014-10-18,52.3,44.6,36.5,39.8,31.8,26.9,84,62,39,29.17,28.97,12,2,13,0.00
2014-10-19,62.4,47.0,33.1,44.5,38.3,29.4,87,73,48,29.09,28.76,11,2,11,0.00
2014-10-20,59.0,50.7,42.8,43.5,38.6,34.9,84,65,45,29.06,28.79,13,3,13,0.00
2014-10-21,54.0,44.7,37.4,38.7,34.9,32.1,86,70,45,29.23,29.06,9,2,10,0.00
2014-10-22,59.2,47.8,36.3,39.3,34.0,30.7,86,62,36,29.26,29.09,13,3,13,0.00
2014-10-23,56.5,53.0,48.6,51.1,47.1,38.8,84,80,61,29.12,28.97,8,1,8,0.20
2014-10-24,61.0,56.8,53.6,54.8,50.8,48.6,85,80,65,29.00,28.85,9,1,9,0.00
2014-10-25,61.5,52.8,37.6,51.4,34.8,23.0,83,54,29,29.03,28.85,16,4,16,0.00
2014-10-26,61.5,47.8,30.2,34.5,28.6,24.7,86,51,29,29.03,28.70,10,2,10,0.00
2014-10-27,65.7,56.6,47.3,45.0,37.5,28.3,75,49,36,28.70,28.52,17,3,17,0.00
2014-10-28,52.3,44.7,38.8,44.8,35.2,27.4,85,70,51,28.91,28.64,20,6,20,0.00
2014-10-29,46.4,39.8,33.6,31.2,29.4,28.1,85,67,53,29.12,28.91,16,4,17,0.00
2014-10-30,49.6,40.8,32.5,34.4,30.8,13.9,86,69,44,29.20,29.03,18,2,18,0.00
2014-10-31,38.5,31.6,22.5,17.8,15.7,12.8,78,52,40,29.44,29.20,18,4,18,0.00
2014-11-1,42.4,29.8,17.6,24.7,17.6,14.6,88,64,39,29.44,29.20,10,1,10,0.05
2014-11-2,55.9,41.2,30.4,28.8,22.3,18.9,67,48,33,29.23,28.94,10,2,10,0.00
2014-11-3,54.3,46.8,39.6,49.3,34.4,21.0,84,63,42,28.94,28.73,8,1,8,0.12
2014-11-4,54.5,45.0,37.6,49.3,31.6,21.6,85,61,38,28.97,28.73,22,7,22,0.00
2014-11-5,42.3,38.5,30.6,38.1,32.7,21.3,86,80,52,29.03,28.88,12,3,12,0.12
2014-11-6,38.7,35.0,27.9,34.8,27.8,21.9,87,76,52,29.23,28.91,12,3,12,0.04
2014-11-7,42.4,35.1,27.0,37.5,27.9,23.6,88,76,55,29.17,28.64,17,2,17,0.00
2014-11-8,42.3,37.4,33.6,35.2,22.6,17.0,85,56,42,28.94,28.67,24,7,24,0.05
2014-11-9,38.7,34.6,28.4,32.9,23.8,12.0,87,66,41,28.82,28.70,11,2,11,0.00
2014-11-10,33.4,31.4,29.1,28.9,25.0,12.2,87,78,45,28.82,28.52,18,6,18,0.00
2014-11-11,33.4,26.2,15.4,29.8,20.4,8.6,88,78,62,29.17,28.73,15,5,15,0.00
2014-11-12,24.3,18.7,10.9,16.3,11.9,5.7,83,75,62,29.26,29.17,9,4,9,0.00
2014-11-13,24.4,20.9,15.8,16.6,13.2,10.2,88,72,57,29.29,29.23,12,5,13,0.00
2014-11-14,22.1,16.4,7.5,11.9,7.2,0.7,79,67,53,29.32,29.26,9,3,9,0.00
2014-11-15,21.2,13.9,2.8,16.8,8.0,-3.8,86,77,66,29.29,29.09,5,1,5,0.00
2014-11-16,22.6,17.7,9.5,19.4,8.1,-4.2,88,67,47,29.09,28.82,11,4,11,0.00
2014-11-17,13.5,10.3,5.4,-0.5,-3.4,-8.0,53,53,53,28.88,28.79,16,7,16,0.00
2014-11-18,15.4,11.8,7.2,8.0,-1.3,-6.5,73,55,48,28.97,28.79,14,5,14,0.00
2014-11-19,22.8,19.3,15.1,17.1,10.5,5.9,86,69,48,28.88,28.67,21,6,21,0.00
2014-11-20,19.4,9.9,0.1,8.7,-2.3,-15.7,72,58,45,29.23,28.88,18,5,18,0.00
2014-11-21,32.2,15.5,-2.7,24.8,0.0,-18.4,74,50,44,29.26,28.91,12,2,12,0.00
2014-11-22,42.4,37.5,32.2,38.3,33.4,25.2,87,85,75,28.91,28.58,11,3,11,0.00
2014-11-23,60.6,52.7,42.6,54.8,47.5,38.3,85,82,81,28.58,28.26,11,1,11,0.00
2014-11-24,56.3,33.4,20.3,49.2,28.1,10.9,88,81,64,28.82,28.23,22,8,22,0.00
2014-11-25,22.6,19.6,15.3,13.4,10.2,6.9,73,66,59,29.06,28.82,12,4,12,0.00
2014-11-26,27.5,22.7,16.7,20.1,14.8,7.7,84,71,60,29.29,29.06,10,3,10,0.00
2014-11-27,16.7,5.6,-2.4,7.7,-4.2,-12.0,67,63,62,29.44,29.26,11,3,13,0.00
2014-11-28,23.5,17.1,8.4,19.0,7.8,-1.6,85,66,56,29.26,28.73,10,4,10,0.00
2014-11-29,37.0,30.1,22.3,30.6,26.4,18.8,88,86,76,28.73,28.44,10,2,10,0.00
2014-11-30,32.2,16.6,4.5,28.6,2.8,-11.9,88,55,45,29.38,28.58,15,5,15,0.00
2014-12-1,5.9,1.6,-3.1,-10.8,-14.4,-18.7,46,46,46,29.68,29.38,12,3,12,0.00
2014-12-2,23.9,15.4,-1.5,17.8,3.2,-17.2,88,60,46,29.41,28.91,9,3,9,0.00
2014-12-3,22.1,15.3,6.6,14.0,3.5,-6.5,87,60,45,29.32,28.94,14,4,14,0.00
2014-12-4,27.9,20.4,6.4,10.0,5.0,-6.8,75,52,42,29.32,29.12,10,3,10,0.00
2014-12-5,34.7,29.9,22.8,27.7,22.8,10.0,88,75,52,29.35,29.09,8,1,9,0.00
2014-12-6,29.7,21.4,11.1,22.1,15.1,8.5,90,78,53,29.62,29.35,9,1,9,0.00
2014-12-7,35.1,28.6,21.2,28.0,18.2,9.3,85,65,51,29.56,29.06,11,3,11,0.00
2014-12-8,46.0,40.3,32.2,41.8,36.5,28.2,87,86,85,29.06,28.94,7,1,7,0.00